Location: Kam�li
(14.6864°N, 3.1482°W)
Time: 01:04:12
(UTC+00:00)

Cosmos 1980 Rocket - Pass Details

Date: 29 October 2020
Orbit: 831 x 848 km, 71.0° (Epoch: 02 December)

Event Time Altitude Azimuth Distance (km) Brightness Sun altitude
Rises 19:03:37 0° 217° (SW) 3,387 6.1 -19.4°
Reaches altitude 10° 19:06:19 10° 227° (SW) 2,451 5.4 -20.1°
Maximum altitude 19:11:14 31° 289° (WNW) 1,421 3.9 -21.2°
Drops below altitude 10° 19:16:09 10° 351° (N) 2,441 4.6 -22.4°
Sets 19:18:52 0° 1° (N) 3,373 5.2 -23.1°
